Location: Sungai Dangang
(2.7500°N, 113.8333°E)
Time: 18:26:00
(UTC+00:00)

CSL-04 Debris - Pass Details

Date: 16 May 2021
Orbit: 827 x 848 km, 98.9° (Epoch: 19 June)

Event Time Altitude Azimuth Distance (km) Brightness Sun altitude
Exits shadow 12:11:45 50° 169° (SSE) 1,063 4.4 -25.0°
Maximum altitude 12:13:16 89° 252° (WSW) 842 4.1 -25.3°
Drops below altitude 10° 12:18:41 10° 347° (NNW) 2,436 7.0 -26.6°
Sets 12:21:01 0° 347° (NNW) 3,365 7.8 -27.1°
